CW0774 Weather Reports


Display with metric or nautical units.
time (UTC)temp
F
wind
direction
speed
MPH
gust
MPH
rain 1hr
in
rain 24hr
in
rain mn
in
humidity
%
barometer
mb
20260506003411 59 82 3.0 12.0 0.00 0.00 0.00 76 1012.7
20260506002911 59 158 4.0 14.0 0.00 0.00 0.00 76 1012.5
20260506002411 59 198 6.0 14.0 0.00 0.00 0.00 75 1012.1
20260506001911 60 196 5.0 14.0 0.00 0.00 0.00 75 1011.9
20260506001411 60 240 5.0 9.0 0.00 0.00 0.00 75 1011.9
20260506000411 60 241 1.0 10.0 0.00 0.00 0.00 75 1011.9
20260505235910 60 226 6.0 10.0 0.00 0.00 0.00 76 1011.8
20260505235410 60 204 3.0 8.0 0.00 0.00 0.00 76 1012.0
20260505234910 59 224 3.0 8.0 0.00 0.00 0.00 77 1012.2
20260505234410 59 125 3.0 10.0 0.00 0.00 0.00 78 1012.2
20260505233910 58 132 4.0 12.0 0.00 0.00 0.00 79 1012.1
20260505233411 58 108 4.0 12.0 0.00 0.00 0.00 80 1012.0
20260505232911 57 184 6.0 13.0 0.00 0.00 0.00 80 1012.1
20260505230911 56 104 4.0 10.0 0.00 0.00 0.00 80 1010.9
20260505230411 57 218 2.0 12.0 0.00 0.00 0.00 80 1010.7
20260505225410 57 213 5.0 12.0 0.00 0.00 0.00 79 1010.6
20260505223910 57 129 3.0 14.0 0.00 0.00 0.00 78 1010.2
20260505223411 57 138 6.0 15.0 0.00 0.00 0.00 78 1010.0
20260505222910 57 197 6.0 17.0 0.00 0.00 0.00 77 1009.9
20260505222410 57 166 5.0 21.0 0.00 0.00 0.00 77 1009.7
20260505221910 57 192 7.0 21.0 0.00 0.00 0.00 77 1009.5
20260505220911 58 202 7.0 20.0 0.00 0.00 0.00 76 1009.6
20260505220412 58 203 6.0 23.0 0.00 0.00 0.00 75 1009.6
20260505215911 58 195 9.0 23.0 0.00 0.00 0.00 75 1009.7
20260505215410 58 193 5.0 16.0 0.00 0.00 0.00 74 1009.6
20260505214410 59 119 7.0 15.0 0.00 0.00 0.00 73 1009.3
20260505213910 59 254 6.0 15.0 0.00 0.00 0.00 73 1009.3
20260505213410 59 44 6.0 18.0 0.00 0.00 0.00 72 1009.3
20260505212910 60 126 9.0 24.0 0.00 0.00 0.00 72 1009.2
20260505212411 60 162 7.0 24.0 0.00 0.00 0.00 71 1009.1
20260505211910 61 145 7.0 23.0 0.00 0.00 0.00 70 1009.2
20260505211411 61 178 7.0 23.0 0.00 0.00 0.00 69 1009.2
20260505210910 61 134 7.0 17.0 0.00 0.00 0.00 69 1009.3
20260505205411 62 194 7.0 20.0 0.00 0.00 0.00 69 1009.4
20260505204910 62 178 6.0 20.0 0.00 0.00 0.00 69 1009.3
20260505203911 62 194 7.0 16.0 0.00 0.00 0.00 68 1009.3
20260505203411 62 166 5.0 16.0 0.00 0.00 0.00 69 1009.3
20260505202911 62 231 5.0 16.0 0.00 0.00 0.00 68 1009.3
20260505201912 62 110 6.0 21.0 0.00 0.00 0.00 68 1009.6
20260505201410 63 149 7.0 17.0 0.00 0.00 0.00 67 1009.7
20260505200411 63 255 7.0 23.0 0.00 0.00 0.00 67 1009.7
20260505195911 63 176 6.0 15.0 0.00 0.00 0.00 67 1009.7
20260505195410 63 358 6.0 18.0 0.00 0.00 0.00 67 1009.7
20260505194910 63 148 6.0 18.0 0.00 0.00 0.00 67 1009.8
20260505194410 63 74 5.0 16.0 0.00 0.00 0.00 67 1009.9
20260505193911 64 180 8.0 16.0 0.00 0.00 0.00 67 1010.0
20260505193411 64 192 6.0 16.0 0.00 0.00 0.00 66 1010.0
20260505192910 64 179 6.0 16.0 0.00 0.00 0.00 66 1010.2
20260505191910 65 153 6.0 14.0 0.00 0.00 0.00 65 1010.5
20260505191410 65 215 6.0 16.0 0.00 0.00 0.00 65 1010.5
20260505190911 65 209 3.0 16.0 0.00 0.00 0.00 65 1010.6
20260505190411 65 181 7.0 16.0 0.00 0.00 0.00 64 1010.6
20260505185412 66 154 6.0 16.0 0.00 0.00 0.00 64 1010.5
20260505184911 66 224 4.0 14.0 0.00 0.00 0.00 65 1010.6
20260505184411 65 115 5.0 14.0 0.00 0.00 0.00 65 1010.6
20260505183411 65 224 7.0 16.0 0.00 0.00 0.00 65 1010.9
20260505182910 65 141 6.0 16.0 0.00 0.00 0.00 65 1011.0
20260505182412 65 174 6.0 16.0 0.00 0.00 0.00 64 1011.1
20260505181911 66 137 6.0 16.0 0.00 0.00 0.00 64 1010.9
20260505181411 66 133 5.0 21.0 0.00 0.00 0.00 64 1011.0
20260505180911 66 212 7.0 21.0 0.00 0.00 0.00 64 1010.9
20260505180410 66 165 6.0 14.0 0.00 0.00 0.00 64 1010.9
20260505175911 66 125 5.0 15.0 0.00 0.00 0.00 64 1010.9
20260505175410 66 225 5.0 15.0 0.00 0.00 0.00 64 1010.9
20260505174411 66 156 6.0 20.0 0.00 0.00 0.00 64 1011.3
20260505173911 65 203 6.0 20.0 0.00 0.00 0.00 64 1011.2
20260505173410 66 206 7.0 18.0 0.00 0.00 0.00 63 1011.5
20260505172910 66 155 5.0 14.0 0.00 0.00 0.00 64 1011.5
20260505172411 66 174 7.0 14.0 0.00 0.00 0.00 63 1011.6
20260505171411 66 157 5.0 13.0 0.00 0.00 0.00 64 1011.6
20260505170910 66 177 7.0 13.0 0.00 0.00 0.00 65 1011.6
20260505165910 65 176 5.0 14.0 0.00 0.00 0.00 66 1011.7
20260505165411 64 178 7.0 14.0 0.00 0.00 0.00 67 1011.8
20260505164911 64 163 7.0 14.0 0.00 0.00 0.00 66 1011.8
20260505164410 64 201 7.0 16.0 0.00 0.00 0.00 66 1012.0
20260505163910 64 171 3.0 16.0 0.00 0.00 0.00 67 1012.0
20260505163411 64 167 4.0 12.0 0.00 0.00 0.00 67 1012.1
20260505161411 64 191 3.0 13.0 0.00 0.00 0.00 69 1012.4
20260505160910 64 122 6.0 13.0 0.00 0.00 0.00 69 1012.6
20260505160411 64 192 6.0 13.0 0.00 0.00 0.00 71 1012.6
20260505152911 59 183 7.0 16.0 0.00 0.00 0.00 79 1013.2
20260505152411 58 104 5.0 16.0 0.00 0.00 0.00 80 1013.4
20260505151911 57 135 4.0 10.0 0.00 0.00 0.00 83 1013.5
20260505151411 56 206 4.0 9.0 0.00 0.00 0.00 83 1013.5
20260505150910 56 232 2.0 8.0 0.00 0.00 0.00 83 1013.6
20260505150410 56 152 2.0 8.0 0.00 0.00 0.00 83 1013.7
20260505140411 55 117 5.0 13.0 0.00 0.00 0.00 86 1013.1
20260505034411 57 148 2.0 13.0 0.00 0.00 0.00 68 1012.6
20260505033910 57 137 5.0 16.0 0.00 0.00 0.00 68 1012.6
20260505033410 57 136 5.0 16.0 0.00 0.00 0.00 68 1012.5
20260505032910 56 193 3.0 12.0 0.00 0.00 0.00 69 1012.4
20260505032410 56 206 5.0 13.0 0.00 0.00 0.00 70 1012.4
20260505031910 56 154 6.0 13.0 0.00 0.00 0.00 72 1012.4
20260505031409 55 129 3.0 9.0 0.00 0.00 0.00 74 1012.4
20260505012908 53 188 3.0 9.0 0.00 0.00 0.00 77 1011.9
20260505012408 53 183 3.0 7.0 0.00 0.00 0.00 77 1011.9
20260505011408 53 227 1.0 6.0 0.00 0.00 0.00 76 1011.7
20260505010908 53 143 2.0 8.0 0.00 0.00 0.00 76 1011.7
20260505010408 53 219 2.0 8.0 0.00 0.00 0.00 75 1011.6
20260505004908 54 179 2.0 9.0 0.00 0.00 0.00 73 1011.4
20260505004408 54 169 1.0 8.0 0.00 0.00 0.00 73 1011.4